KB0ALP Weather Reports


Display with metric or nautical units.
time (UTC)temp
F
wind
direction
speed
MPH
gust
MPH
rain 1hr
in
rain 24hr
in
rain mn
in
humidity
%
barometer
mb
20260906061007 73 158 1.0 3.0 0.00 0.00 0.00 83 1017.4
20260906060507 73 185 0.0 4.0 0.00 0.00 0.00 83 1017.4
20260906060021 73 199 1.0 4.0 0.00 0.00 0.00 83 1017.4
20260906055513 73 190 0.0 9.0 0.00 0.00 0.00 83 1017.4
20260906055009 74 189 1.0 9.0 0.00 0.00 0.00 82 1017.4
20260906054533 74 136 1.0 5.0 0.00 0.00 0.00 82 1017.4
20260906054009 74 221 2.0 4.0 0.00 0.00 0.00 82 1017.4
20260906053511 74 220 2.0 4.0 0.00 0.00 0.00 82 1017.4
20260906053014 74 200 0.0 4.0 0.00 0.00 0.00 81 1017.4
20260906052506 74 201 0.0 5.0 0.00 0.00 0.00 81 1017.4
20260906052012 74 226 1.0 5.0 0.00 0.00 0.00 81 1017.3
20260906051518 74 205 0.0 3.0 0.00 0.00 0.00 81 1017.3
20260906051011 74 206 1.0 4.0 0.00 0.00 0.00 81 1017.1
20260906050514 75 169 1.0 4.0 0.00 0.00 0.00 80 1017.2
20260906050027 75 207 1.0 4.0 0.00 0.00 0.00 80 1017.2
20260906045509 75 191 1.0 4.0 0.00 0.00 0.00 80 1017.4
20260906045008 75 203 1.0 4.0 0.00 0.00 0.00 81 1017.3
20260906044523 75 191 0.0 5.0 0.00 0.00 0.00 81 1017.3
20260906044011 75 160 3.0 5.0 0.00 0.00 0.00 81 1017.1
20260906043509 75 203 2.0 4.0 0.00 0.00 0.00 81 1017.0
20260906043026 75 289 1.0 5.0 0.00 0.00 0.00 81 1016.9
20260906042509 75 245 3.0 5.0 0.00 0.00 0.00 81 1016.8
20260906042014 75 263 0.0 4.0 0.00 0.00 0.00 82 1016.7
20260906041516 75 243 2.0 4.0 0.00 0.00 0.00 81 1016.6
20260906041009 75 250 0.0 3.0 0.00 0.00 0.00 81 1016.5
20260906040509 75 181 0.0 3.0 0.00 0.00 0.00 81 1016.4
20260906040023 75 216 0.0 3.0 0.00 0.00 0.00 81 1016.3
20260906035508 75 225 0.0 3.0 0.00 0.00 0.00 81 1016.3
20260906035011 75 184 0.0 1.0 0.00 0.00 0.00 81 1016.3
20260906034528 75 178 0.0 2.0 0.00 0.00 0.00 81 1016.1
20260906034011 75 207 0.0 2.0 0.00 0.00 0.00 81 1016.1
20260906033512 75 216 0.0 1.0 0.00 0.00 0.00 81 1016.1
20260906033028 76 253 0.0 2.0 0.00 0.00 0.00 81 1016.2
20260906032513 76 186 0.0 2.0 0.00 0.00 0.00 81 1016.2
20260906032015 76 179 0.0 0.0 0.00 0.00 0.00 81 1016.1
20260906031524 76 179 0.0 2.0 0.00 0.00 0.00 81 1016.1
20260906031015 76 179 0.0 3.0 0.00 0.00 0.00 80 1016.0
20260906030512 76 196 0.0 3.0 0.00 0.00 0.00 80 1015.9
20260906030019 76 142 0.0 2.0 0.00 0.00 0.00 80 1015.8
20260906025508 76 195 0.0 2.0 0.00 0.00 0.00 80 1015.8
20260906025010 76 245 0.0 3.0 0.00 0.00 0.00 80 1015.8
20260906024520 76 236 1.0 3.0 0.00 0.00 0.00 81 1015.7
20260906024012 76 240 0.0 3.0 0.00 0.00 0.00 80 1015.7
20260906023514 76 192 0.0 3.0 0.00 0.00 0.00 81 1015.7
20260906023027 76 213 0.0 2.0 0.00 0.00 0.00 81 1015.7
20260906022512 76 245 0.0 2.0 0.00 0.00 0.00 80 1015.6
20260906022012 76 207 0.0 1.0 0.00 0.00 0.00 80 1015.6
20260906021537 76 207 0.0 2.0 0.00 0.00 0.00 80 1015.6
20260906021014 76 232 0.0 3.0 0.00 0.00 0.00 80 1015.5
20260906020517 76 210 1.0 3.0 0.00 0.00 0.00 80 1015.4
20260906020030 76 186 0.0 2.0 0.00 0.00 0.00 80 1015.3
20260906015511 76 186 0.0 2.0 0.00 0.00 0.00 80 1015.2
20260906015014 76 233 0.0 2.0 0.00 0.00 0.00 80 1015.3
20260906014529 76 212 0.0 2.0 0.00 0.00 0.00 80 1015.4
20260906014009 76 233 0.0 3.0 0.00 0.00 0.00 80 1015.2
20260906013512 76 218 0.0 3.0 0.00 0.00 0.00 79 1015.0
20260906013038 76 203 0.0 4.0 0.00 0.00 0.00 79 1014.9
20260906012503 77 208 1.0 4.0 0.00 0.00 0.00 79 1015.0
20260906012003 77 213 0.0 3.0 0.00 0.00 0.00 79 1015.0
20260906011505 77 200 0.0 3.0 0.00 0.00 0.00 79 1015.0
20260906011003 77 257 0.0 3.0 0.00 0.00 0.00 78 1015.1
20260906010505 77 214 1.0 4.0 0.00 0.00 0.00 78 1015.2
20260906010008 77 236 1.0 4.0 0.00 0.00 0.00 78 1015.2
20260906005504 78 248 2.0 4.0 0.00 0.00 0.00 78 1015.2
20260906005005 78 243 1.0 4.0 0.00 0.00 0.00 77 1015.2
20260906004516 78 183 1.0 5.0 0.00 0.00 0.00 78 1015.2
20260906004002 78 174 0.0 5.0 0.00 0.00 0.00 77 1015.2
20260906003502 79 191 1.0 6.0 0.00 0.00 0.00 77 1015.2
20260906003008 79 262 2.0 6.0 0.00 0.00 0.00 77 1015.1
20260906002502 79 221 2.0 4.0 0.00 0.00 0.00 76 1015.1
20260906002003 80 188 1.0 6.0 0.00 0.00 0.00 76 1015.1
20260906001506 80 227 2.0 6.0 0.00 0.00 0.00 75 1015.1
20260906001003 80 204 1.0 4.0 0.00 0.00 0.00 75 1015.0
20260906000504 81 245 2.0 4.0 0.00 0.00 0.00 75 1015.0
20260906000006 81 170 2.0 7.0 0.00 0.00 0.00 76 1014.9
20260905235503 81 181 2.0 7.0 0.00 0.00 0.00 75 1014.7
20260905235004 82 218 2.0 6.0 0.00 0.00 0.00 75 1014.7
20260905234512 82 169 2.0 6.0 0.00 0.00 0.00 74 1014.6
20260905234007 82 196 2.0 6.0 0.00 0.00 0.00 75 1014.7
20260905233507 82 172 2.0 6.0 0.00 0.00 0.00 74 1014.7
20260905233019 83 229 3.0 6.0 0.00 0.00 0.00 74 1014.6
20260905232510 83 181 3.0 7.0 0.00 0.00 0.00 73 1014.7
20260905232003 83 210 1.0 7.0 0.00 0.00 0.00 74 1014.7
20260905231504 84 178 2.0 6.0 0.00 0.00 0.00 74 1014.7
20260905231003 84 174 3.0 6.0 0.00 0.00 0.00 74 1014.7
20260905230504 85 268 3.0 5.0 0.00 0.00 0.00 73 1014.6
20260905230007 85 100 0.0 5.0 0.00 0.00 0.00 74 1014.6
20260905225504 85 214 2.0 5.0 0.00 0.00 0.00 73 1014.7
20260905225003 85 145 1.0 4.0 0.00 0.00 0.00 73 1014.7
20260905224514 86 152 2.0 5.0 0.00 0.00 0.00 72 1014.7
20260905224003 86 255 2.0 5.0 0.00 0.00 0.00 72 1014.6
20260905223507 86 212 0.0 5.0 0.00 0.00 0.00 71 1014.6
20260905223014 86 200 2.0 5.0 0.00 0.00 0.00 71 1014.6
20260905222509 87 181 1.0 4.0 0.00 0.00 0.00 71 1014.5
20260905222007 87 148 2.0 6.0 0.00 0.00 0.00 70 1014.4
20260905221519 87 271 3.0 6.0 0.00 0.00 0.00 70 1014.3
20260905221009 87 224 2.0 5.0 0.00 0.00 0.00 70 1014.3
20260905220502 87 252 3.0 5.0 0.00 0.00 0.00 70 1014.4
20260905220003 87 215 1.0 4.0 0.00 0.00 0.00 71 1014.4
20260905215504 87 229 1.0 6.0 0.00 0.00 0.00 71 1014.5
20260905215003 87 212 2.0 6.0 0.00 0.00 0.00 70 1014.4
20260905214506 87 159 1.0 4.0 0.00 0.00 0.00 70 1014.4
20260905214004 88 78 1.0 6.0 0.00 0.00 0.00 70 1014.2
20260905213503 88 183 2.0 6.0 0.00 0.00 0.00 70 1014.2
20260905213009 88 196 1.0 5.0 0.00 0.00 0.00 70 1014.1
20260905212506 88 209 1.0 5.0 0.00 0.00 0.00 70 1014.1
20260905212004 89 231 2.0 7.0 0.00 0.00 0.00 68 1014.0
20260905211515 89 243 3.0 7.0 0.00 0.00 0.00 68 1014.0
20260905211007 89 167 2.0 6.0 0.00 0.00 0.00 69 1014.0
20260905210509 90 190 2.0 6.0 0.00 0.00 0.00 67 1014.1
20260905210021 91 155 2.0 4.0 0.00 0.00 0.00 67 1014.1
20260905205511 91 208 1.0 5.0 0.00 0.00 0.00 67 1014.0
20260905205012 91 252 1.0 6.0 0.00 0.00 0.00 67 1014.1
20260905204502 91 273 3.0 6.0 0.00 0.00 0.00 65 1014.1
20260905204002 92 250 2.0 6.0 0.00 0.00 0.00 64 1014.2
20260905203504 92 194 2.0 5.0 0.00 0.00 0.00 64 1014.2
20260905203008 92 155 1.0 5.0 0.00 0.00 0.00 64 1014.2
20260905202503 92 225 2.0 4.0 0.00 0.00 0.00 63 1014.4
20260905202005 92 44 0.0 3.0 0.00 0.00 0.00 63 1014.4
20260905201517 92 318 0.0 3.0 0.00 0.00 0.00 64 1014.4
20260905201007 92 134 1.0 3.0 0.00 0.00 0.00 63 1014.3
20260905200504 92 136 2.0 3.0 0.00 0.00 0.00 62 1014.2
20260905200023 92 176 1.0 3.0 0.00 0.00 0.00 61 1014.2
20260905195507 92 176 2.0 3.0 0.00 0.00 0.00 63 1014.3
20260905195008 92 229 1.0 3.0 0.00 0.00 0.00 63 1014.3
20260905194520 92 217 1.0 3.0 0.00 0.00 0.00 63 1014.3
20260905194012 91 156 1.0 3.0 0.00 0.00 0.00 64 1014.4
20260905193517 92 167 0.0 3.0 0.00 0.00 0.00 63 1014.4
20260905193005 93 158 1.0 3.0 0.00 0.00 0.00 61 1014.4
20260905192503 92 86 0.0 4.0 0.00 0.00 0.00 64 1014.4
20260905192003 92 162 1.0 4.0 0.00 0.00 0.00 62 1014.5
20260905191508 92 203 1.0 4.0 0.00 0.00 0.00 65 1014.4
20260905191003 91 276 2.0 4.0 0.00 0.00 0.00 64 1014.5
20260905190504 91 248 0.0 2.0 0.00 0.00 0.00 66 1014.6
20260905190016 91 205 0.0 3.0 0.00 0.00 0.00 64 1014.6
20260905185505 92 100 1.0 4.0 0.00 0.00 0.00 63 1014.6
20260905185009 92 165 0.0 4.0 0.00 0.00 0.00 63 1014.6
20260905184522 92 178 0.0 3.0 0.00 0.00 0.00 65 1014.6
20260905184011 91 265 1.0 3.0 0.00 0.00 0.00 63 1014.6
20260905183510 92 207 1.0 3.0 0.00 0.00 0.00 62 1014.6
20260905183024 92 213 1.0 3.0 0.00 0.00 0.00 63 1014.5
20260905182511 92 240 1.0 3.0 0.00 0.00 0.00 64 1014.6
20260905182013 91 269 2.0 3.0 0.00 0.00 0.00 64 1014.6
20260905181529 91 227 0.0 3.0 0.00 0.00 0.00 64 1014.8
20260905181004 91 172 0.0 3.0 0.00 0.00 0.00 64 1014.7
20260905180503 91 185 1.0 3.0 0.00 0.00 0.00 63 1014.7
20260905180009 92 169 1.0 3.0 0.00 0.00 0.00 63 1014.7
20260905175503 92 174 1.0 3.0 0.00 0.00 0.00 63 1014.9
20260905175008 92 146 1.0 3.0 0.00 0.00 0.00 62 1014.9
20260905174517 92 278 1.0 3.0 0.00 0.00 0.00 62 1014.8
20260905174009 91 157 0.0 3.0 0.00 0.00 0.00 62 1014.9
20260905173509 91 162 1.0 3.0 0.00 0.00 0.00 62 1015.0
20260905173018 92 210 2.0 3.0 0.00 0.00 0.00 62 1014.9
20260905172511 92 146 2.0 4.0 0.00 0.00 0.00 62 1014.9
20260905172012 92 262 2.0 4.0 0.00 0.00 0.00 61 1014.9
20260905171530 92 245 1.0 4.0 0.00 0.00 0.00 61 1015.0
20260905171011 93 264 1.0 2.0 0.00 0.00 0.00 61 1015.1
20260905170512 92 178 0.0 3.0 0.00 0.00 0.00 62 1015.0
20260905170029 92 156 0.0 3.0 0.00 0.00 0.00 63 1015.1
20260905165514 91 259 1.0 5.0 0.00 0.00 0.00 62 1015.2
20260905165003 91 141 2.0 5.0 0.00 0.00 0.00 63 1015.2
20260905164509 91 231 1.0 5.0 0.00 0.00 0.00 64 1015.2
20260905164003 91 226 2.0 5.0 0.00 0.00 0.00 64 1015.3
20260905163503 91 249 1.0 4.0 0.00 0.00 0.00 65 1015.2
20260905163014 91 297 1.0 4.0 0.00 0.00 0.00 64 1015.2
20260905162512 90 288 0.0 2.0 0.00 0.00 0.00 67 1015.2
20260905162007 89 260 1.0 5.0 0.00 0.00 0.00 66 1015.2
20260905161521 89 265 1.0 5.0 0.00 0.00 0.00 66 1015.2
20260905161008 90 276 1.0 4.0 0.00 0.00 0.00 64 1015.3
20260905160512 90 254 2.0 5.0 0.00 0.00 0.00 66 1015.2
20260905160032 89 205 2.0 5.0 0.00 0.00 0.00 65 1015.3
20260905155514 89 272 2.0 5.0 0.00 0.00 0.00 66 1015.3
20260905155015 90 143 2.0 4.0 0.00 0.00 0.00 65 1015.3
20260905154532 90 243 2.0 3.0 0.00 0.00 0.00 66 1015.4
20260905154016 90 273 1.0 3.0 0.00 0.00 0.00 66 1015.4
20260905153504 89 245 1.0 4.0 0.00 0.00 0.00 67 1015.3
20260905153015 89 299 1.0 4.0 0.00 0.00 0.00 67 1015.3
20260905152504 89 230 2.0 4.0 0.00 0.00 0.00 68 1015.3
20260905152007 89 282 1.0 3.0 0.00 0.00 0.00 67 1015.3
20260905151515 89 276 1.0 3.0 0.00 0.00 0.00 65 1015.2
20260905151009 89 290 1.0 4.0 0.00 0.00 0.00 67 1015.2
20260905150508 89 274 2.0 4.0 0.00 0.00 0.00 66 1015.0
20260905150024 89 296 0.0 2.0 0.00 0.00 0.00 66 1015.0
20260905145512 88 257 0.0 2.0 0.00 0.00 0.00 68 1014.9
20260905145014 88 255 1.0 3.0 0.00 0.00 0.00 67 1014.9
20260905144530 88 180 1.0 3.0 0.00 0.00 0.00 69 1014.8
20260905144016 88 176 1.0 3.0 0.00 0.00 0.00 69 1014.6
20260905143517 88 240 0.0 3.0 0.00 0.00 0.00 70 1014.6
20260905143032 88 290 0.0 1.0 0.00 0.00 0.00 71 1014.5
20260905142515 87 262 0.0 1.0 0.00 0.00 0.00 72 1014.5
20260905142016 87 278 0.0 1.0 0.00 0.00 0.00 73 1014.4
20260905141510 87 191 0.0 2.0 0.00 0.00 0.00 74 1014.3
20260905141006 86 153 0.0 3.0 0.00 0.00 0.00 74 1014.4
20260905140506 85 207 0.0 3.0 0.00 0.00 0.00 76 1014.4
20260905140018 85 290 0.0 3.0 0.00 0.00 0.00 75 1014.3
20260905135508 85 288 0.0 2.0 0.00 0.00 0.00 76 1014.3
20260905135010 84 322 0.0 2.0 0.00 0.00 0.00 77 1014.3
20260905134526 84 295 0.0 3.0 0.00 0.00 0.00 77 1014.3
20260905134013 85 306 0.0 3.0 0.00 0.00 0.00 77 1014.2
20260905133512 84 330 0.0 0.0 0.00 0.00 0.00 77 1014.3
20260905133028 83 335 0.0 0.0 0.00 0.00 0.00 78 1014.1
20260905132516 83 338 0.0 0.0 0.00 0.00 0.00 78 1014.1
20260905132019 83 337 0.0 0.0 0.00 0.00 0.00 77 1014.1
20260905131531 83 338 0.0 0.0 0.00 0.00 0.00 77 1014.2
20260905131020 83 338 0.0 0.0 0.00 0.00 0.00 77 1014.3
20260905130515 83 328 0.0 1.0 0.00 0.00 0.00 78 1014.3
20260905130015 83 328 0.0 1.0 0.00 0.00 0.00 79 1014.4
20260905125513 83 4 0.0 0.0 0.00 0.00 0.00 79 1014.4
20260905125014 82 4 0.0 0.0 0.00 0.00 0.00 80 1014.2
20260905124524 81 4 0.0 0.0 0.00 0.00 0.00 81 1014.3
20260905124009 81 4 0.0 0.0 0.00 0.00 0.00 82 1014.2
20260905123509 80 43 0.0 0.0 0.00 0.00 0.00 83 1014.2
20260905123027 80 43 0.0 0.0 0.00 0.00 0.00 85 1014.1
20260905122512 79 43 0.0 0.0 0.00 0.00 0.00 87 1014.0
20260905122017 78 43 0.0 0.0 0.00 0.00 0.00 89 1014.1
20260905121532 77 43 0.0 0.0 0.00 0.00 0.00 90 1014.1
20260905121017 76 43 0.0 0.0 0.00 0.00 0.00 90 1013.9
20260905120517 76 43 0.0 0.0 0.00 0.00 0.00 90 1013.7
20260905120032 76 43 0.0 0.0 0.00 0.00 0.00 90 1013.6
20260905115517 76 43 0.0 0.0 0.00 0.00 0.00 90 1013.5
20260905115018 76 43 0.0 0.0 0.00 0.00 0.00 90 1013.3
20260905114532 76 43 0.0 0.0 0.00 0.00 0.00 90 1013.2
20260905114009 76 43 0.0 0.0 0.00 0.00 0.00 90 1013.1
20260905113511 76 43 0.0 0.0 0.00 0.00 0.00 89 1013.1
20260905113023 76 43 0.0 0.0 0.00 0.00 0.00 89 1013.1
20260905112512 76 43 0.0 0.0 0.00 0.00 0.00 89 1013.0
20260905112014 76 43 0.0 0.0 0.00 0.00 0.00 89 1013.0
20260905111528 76 43 0.0 0.0 0.00 0.00 0.00 89 1012.9
20260905111015 76 43 0.0 0.0 0.00 0.00 0.00 89 1012.9
20260905110515 76 43 0.0 0.0 0.00 0.00 0.00 89 1012.8
20260905110028 77 43 0.0 0.0 0.00 0.00 0.00 89 1012.8
20260905105516 77 43 0.0 0.0 0.00 0.00 0.00 89 1012.8
20260905105019 77 43 0.0 0.0 0.00 0.00 0.00 88 1012.8
20260905104538 77 43 0.0 0.0 0.00 0.00 0.00 89 1012.9
20260905104015 77 43 0.0 0.0 0.00 0.00 0.00 88 1012.9
20260905103515 77 43 0.0 0.0 0.00 0.00 0.00 88 1013.0
20260905103038 77 43 0.0 0.0 0.00 0.00 0.00 88 1013.0
20260905102508 77 43 0.0 0.0 0.00 0.00 0.00 88 1012.9
20260905102012 77 43 0.0 0.0 0.00 0.00 0.00 88 1012.9
20260905101522 77 43 0.0 0.0 0.00 0.00 0.00 88 1012.9
20260905101002 77 43 0.0 0.0 0.00 0.00 0.00 88 1013.0
20260905100503 77 43 0.0 0.0 0.00 0.00 0.00 88 1013.0
20260905100006 78 43 0.0 0.0 0.00 0.00 0.00 88 1013.0
20260905095503 78 43 0.0 0.0 0.00 0.00 0.00 88 1013.0
20260905095004 78 43 0.0 0.0 0.00 0.00 0.00 88 1013.0
20260905094511 78 43 0.0 0.0 0.00 0.00 0.00 88 1013.0
20260905094005 78 43 0.0 0.0 0.00 0.00 0.00 88 1013.1
20260905093506 78 43 0.0 0.0 0.00 0.00 0.00 87 1013.1
20260905093017 78 43 0.0 0.0 0.00 0.00 0.00 87 1013.2
20260905092506 78 43 0.0 0.0 0.00 0.00 0.00 87 1013.2
20260905092008 78 43 0.0 0.0 0.00 0.00 0.00 87 1013.2
20260905091524 78 43 0.0 0.0 0.00 0.00 0.00 87 1013.1
20260905091009 78 43 0.0 0.0 0.00 0.00 0.00 88 1013.1
20260905090511 78 43 0.0 0.0 0.00 0.00 0.00 88 1013.1
20260905090027 78 43 0.0 0.0 0.00 0.00 0.00 88 1013.2
20260905085514 78 43 0.0 0.0 0.00 0.00 0.00 88 1013.2
20260905085003 78 43 0.0 0.0 0.00 0.00 0.00 87 1013.3
20260905084507 78 43 0.0 0.0 0.00 0.00 0.00 87 1013.3
20260905084004 78 43 0.0 0.0 0.00 0.00 0.00 87 1013.3
20260905083503 78 43 0.0 0.0 0.00 0.00 0.00 87 1013.3
20260905083012 78 43 0.0 0.0 0.00 0.00 0.00 86 1013.4
20260905082503 78 43 0.0 0.0 0.00 0.00 0.00 86 1013.4
20260905082006 79 43 0.0 0.0 0.00 0.00 0.00 86 1013.4
20260905081518 79 43 0.0 0.0 0.00 0.00 0.00 85 1013.5
20260905081009 79 43 0.0 0.0 0.00 0.00 0.00 85 1013.5
20260905080509 79 43 0.0 0.0 0.00 0.00 0.00 85 1013.4
20260905080026 79 43 0.0 0.0 0.00 0.00 0.00 85 1013.3
20260905075512 80 43 0.0 0.0 0.00 0.00 0.00 84 1013.3
20260905075011 80 43 0.0 0.0 0.00 0.00 0.00 84 1013.3
20260905074530 80 43 0.0 0.0 0.00 0.00 0.00 84 1013.2
20260905074013 80 43 0.0 0.0 0.00 0.00 0.00 84 1013.2
20260905073503 80 43 0.0 0.0 0.00 0.00 0.00 84 1013.3
20260905073008 80 43 0.0 1.0 0.00 0.00 0.00 84 1013.3
20260905072503 80 43 0.0 2.0 0.00 0.00 0.00 84 1013.3
20260905072004 80 42 0.0 2.0 0.00 0.00 0.00 84 1013.4
20260905071522 80 26 0.0 1.0 0.00 0.00 0.00 85 1013.4
20260905071011 80 24 0.0 0.0 0.00 0.00 0.00 85 1013.4
20260905070509 80 23 0.0 0.0 0.00 0.00 0.00 85 1013.4
20260905070023 80 24 0.0 0.0 0.00 0.00 0.00 85 1013.4
20260905065514 79 23 0.0 0.0 0.00 0.00 0.00 86 1013.3
20260905065013 79 5 0.0 0.0 0.00 0.00 0.00 86 1013.3
20260905064528 79 5 0.0 0.0 0.00 0.00 0.00 86 1013.2
20260905064013 79 5 0.0 0.0 0.00 0.00 0.00 85 1013.3
20260905063512 79 5 0.0 0.0 0.00 0.00 0.00 85 1013.4
20260905063031 80 5 0.0 0.0 0.00 0.00 0.00 85 1013.5
20260905062518 80 5 0.0 0.0 0.00 0.00 0.00 85 1013.6
20260905062014 80 5 0.0 0.0 0.00 0.00 0.00 84 1013.7
20260905061515 80 5 0.0 0.0 0.00 0.00 0.00 84 1013.7